Location: Bosdarros
(43.2167°N, 0.3667°W)
Time: 16:08:25
(UTC+00:00)

Cosmos 1386 Rocket - Pass Details

Date: 22 April 2021
Orbit: 928 x 1007 km, 83.0° (Epoch: 12 May)

Event Time Altitude Azimuth Distance (km) Brightness Sun altitude
Rises 22:14:16 0° 353° (N) 3,605 8.5 -29.3°
Reaches altitude 10° 22:16:46 10° 355° (N) 2,651 7.5 -29.5°
Enters shadow 22:22:21 73° 38° (NE) 975 4.4 -30.0°
